Lid_Strength_Index
7 11 13 11 9 10 12 14 13 11 9 10 11 10 9 8 8 8 8 8 8 7 6 5 4 4 3 3 3 3 4 2 2 2 2 2 2 2 2 1 1 1 1 0
10 12 10 9 9 10 11 13 14 11 10 11 11 12 11 10 10 9 9 8 8 8 7 6 5 4 4 4 4 4 4 4 2 2 2 2 2 2 2 1 1 1 1 0
12 10 8 10 11 12 12 13 14 14 12 11 12 14 12 11 10 9 8 8 8 8 8 7 7 6 6 5 5 5 4 4 3 2 1 2 2 2 2 2 2 1 0 1
10 8 9 10 12 11 14 11 11 12 15 18 12 20 15 14 12 11 9 10 9 8 7 7 7 7 6 5 4 4 3 3 3 2 1 2 3 3 3 2 1 1 0 0
11 10 11 12 11 10 13 10 11 12 14 15 16 18 17 14 15 13 11 9 9 8 8 7 8 5 5 4 4 3 3 3 2 3 3 2 3 2 2 2 2 2 0 0
9 8 9 10 9 9 10 12 12 13 14 19 16 17 18 15 14 13 11 10 9 8 8 7 6 6 5 4 4 4 4 4 4 3 2 2 2 2 3 2 2 1 1 1
11 10 9 9 11 10 11 13 19 20 20 21 15 16 16 13 13 12 12 11 10 8 7 8 7 7 6 6 5 5 6 7 7 8 7 6 6 7 7 5 5 5 6 7
16 17 11 9 11 12 12 13 18 23 21 19 14 19 16 11 10 10 10 11 9 8 7 8 8 8 8 8 7 7 8 9 9 9 9 9 9 9 9 9 10 10 10 10
15 15 9 9 9 9 12 14 11 15 17 19 18 16 13 11 12 11 11 10 10 9 9 9 9 9 10 10 10 10 10 10 10 10 10 10 9 10 10 11 11 11 10 10
11 16 10 9 8 8 10 9 15 15 24 24 19 19 17 14 13 11 11 11 10 9 10 10 11 11 11 12 12 11 11 11 11 11 11 10 10 10 11 11 11 11 11 12
10 12 13 10 12 13 12 13 12 13 15 19 21 19 13 13 12 11 11 10 10 10 10 11 11 12 12 12 13 13 13 12 12 11 11 12 12 12 12 13 13 13 13 12
9 12 15 14 9 8 9 11 13 16 17 15 16 17 11 12 11 11 11 9 9 9 10 11 12 12 13 13 14 14 14 13 13 12 13 14 14 14 14 14 14 14 13 13
9 13 17 16 13 10 12 11 11 11 13 16 18 18 11 11 11 11 11 10 10 10 12 12 13 13 14 14 15 15 15 14 14 14 15 15 15 15 15 15 15 14 14 14
8 12 14 17 14 12 15 13 11 12 16 15 15 15 13 12 12 11 10 8 9 10 11 12 13 13 14 14 15 15 15 15 15 15 16 16 16 16 16 15 15 15 14 14
10 15 13 12 11 11 12 13 12 13 13 15 13 13 12 11 10 10 8 8 9 10 11 11 12 13 14 15 15 15 16 15 15 16 16 16 15 15 15 15 15 14 14 14
10 14 13 15 12 12 13 12 12 12 12 12 12 12 9 9 8 9 8 8 9 10 10 10 11 13 14 14 15 15 16 15 15 16 16 15 15 16 16 15 16 16 15 15
11 13 17 17 13 13 16 13 12 11 11 11 14 11 8 8 8 8 8 8 8 8 9 10 11 12 14 15 15 16 16 15 15 16 16 16 16 16 16 16 16 16 16 16
12 13 13 16 14 20 13 9 9 10 10 9 9 9 8 7 7 6 6 7 8 8 9 11 12 14 15 15 16 16 16 16 16 16 16 16 18 18 17 17 17 18 17 17
9 12 15 17 17 14 13 11 11 11 12 8 9 8 7 6 7 7 7 6 7 8 8 10 13 15 16 16 16 16 16 16 17 17 18 18 18 18 18 18 18 18 18 17
10 10 13 15 19 20 13 10 8 9 14 8 8 8 8 7 11 8 6 8 8 10 12 14 15 16 16 16 16 17 17 18 19 19 19 19 18 18 19 19 19 18 18 18
14 14 16 16 17 15 11 10 9 15 14 8 8 7 8 9 7 7 12 13 13 14 15 16 17 17 17 16 16 17 18 19 19 19 19 19 19 19 19 19 19 19 19 19
14 15 16 15 17 19 10 11 12 10 11 13 13 13 11 10 12 13 15 16 16 17 17 17 18 18 17 16 17 19 21 20 20 21 21 20 20 20 20 20 20 19 19 20
14 12 14 13 13 12 14 14 15 15 14 15 15 14 13 14 15 15 16 17 17 17 17 18 19 19 18 17 18 21 21 21 22 22 22 22 21 21 21 21 21 21 21 21
10 10 12 12 10 12 13 15 16 16 16 15 15 15 15 16 16 17 17 17 18 18 19 19 20 21 22 21 20 21 22 22 22 23 22 22 22 22 22 21 21 22 22 22
11 12 13 13 10 13 12 14 15 16 16 16 16 15 16 16 17 17 18 19 19 19 20 20 21 22 22 22 23 23 23 22 23 23 23 23 23 23 23 22 22 22 21 21
11 12 12 12 12 13 14 16 15 16 17 17 17 17 16 16 18 18 20 20 20 20 20 21 22 22 23 23 25 25 24 24 24 24 24 25 24 24 23 24 24 21 20 20